Alexandroupolis, Greece

4:25 PM EET on February 22, 2017 (GMT +0200)
Dimokritos

Weather History for LGAL - October, 2013

Change the Weather History Date:

Tuesday, October 15, 2013

  Actual Average Record
Temperature  
Mean Temperature 60 °F -  
Max Temperature 70 °F 64 °F 77 °F (2012)
Min Temperature 50 °F 47 °F 37 °F (2007)
Degree Days  
Heating Degree Days 5    
Growing Degree Days 10 (Base 50)    
Moisture  
Dew Point 56 °F    
Average Humidity 80    
Maximum Humidity 100    
Minimum Humidity 56    
Precipitation  
Precipitation 0.00 in 0.08 in - ()
Sea Level Pressure  
Sea Level Pressure 30.07 in    
Wind  
Wind Speed 3 mph ()    
Max Wind Speed 9 mph    
Max Gust Speed -    
Visibility 5.1 miles    
Events      
Averages and records for this station are not official NWS values.
T = Trace of Precipitation, MM = Missing Value Source: Averaged Metar Reports

Daily Weather History Graph

Daily Weather History Graph

Search for Another Location

Airport or City:

Trip Planner

Search our weather history database for the weather conditions in past years. The results will help you decide how hot, cold, wet, or windy it might be!

Date:

Astronomy

Oct. 15, 2013 Rise Set
Actual Time 7:27 AM EEST 6:35 PM EEST
Civil Twilight 6:59 AM EEST 7:03 PM EEST
Nautical Twilight 6:28 AM EEST 7:35 PM EEST
Astronomical Twilight 5:56 AM EEST 8:07 PM EEST
Moon 4:31 PM EEST (10/15) 3:27 AM EEST (10/15)
Length of Visible Light 12h 03m
Length of Day
11h 08m
Waxing Gibbous, 85% of the Moon is Illuminated
Oct 15
Waxing Gibbous
Oct 19
Full
Oct 27
Last Quarter
Nov 3
New
Nov 10
First Quarter

Hourly Weather History & Observations

Time (EEST) Temp. Dew Point Humidity Pressure Visibility Wind Dir Wind Speed Gust Speed Precip Events Conditions
4:50 AM 53.6 °F 51.8 °F 94% 30.12 in 6.2 mi Calm Calm - N/A   Partly Cloudy
5:20 AM 53.6 °F 51.8 °F 94% 30.12 in 6.2 mi Calm Calm - N/A   Partly Cloudy
5:50 AM 51.8 °F 50.0 °F 94% 30.12 in 5.6 mi Calm Calm - N/A   Partly Cloudy
6:20 AM 51.8 °F 50.0 °F 94% 30.12 in 5.6 mi Calm Calm - N/A   Partly Cloudy
6:50 AM 51.8 °F 50.0 °F 94% 30.12 in 5.6 mi Calm Calm - N/A   Partly Cloudy
7:20 AM 51.8 °F 51.8 °F 100% 30.12 in 3.1 mi Calm Calm - N/A   Partly Cloudy
7:50 AM 50.0 °F 48.2 °F 94% 30.12 in 3.7 mi Calm Calm - N/A   Mist
8:20 AM 50.0 °F 48.2 °F 94% 30.12 in 3.7 mi Calm Calm - N/A   Mist
8:50 AM 53.6 °F 51.8 °F 94% 30.12 in 4.3 mi Calm Calm - N/A   Unknown
9:00 AM 54 °F 51 °F 88% 30.15 in 4 mi Calm Calm - -   Mist
9:20 AM 57.2 °F 51.8 °F 82% 30.12 in 5.0 mi Calm Calm - N/A   Unknown
9:50 AM 62.6 °F 55.4 °F 77% 30.12 in 5.0 mi Variable 2.3 mph - N/A   Unknown
10:20 AM 64.4 °F 55.4 °F 73% 30.12 in 5.0 mi Variable 3.5 mph - N/A   Unknown
10:50 AM 64.4 °F 57.2 °F 77% 30.12 in 5.6 mi Variable 3.5 mph - N/A   Unknown
11:20 AM 66.2 °F 57.2 °F 73% 30.12 in - ESE 5.8 mph - N/A   Clear
11:50 AM 68.0 °F 57.2 °F 68% 30.12 in - SE 4.6 mph - N/A   Clear
12:20 PM 68.0 °F 57.2 °F 68% 30.12 in - SSE 8.1 mph - N/A   Clear
12:50 PM 69.8 °F 55.4 °F 60% 30.09 in - SSE 6.9 mph - N/A   Clear
1:20 PM 69.8 °F 55.4 °F 60% 30.09 in - SSW 6.9 mph - N/A   Clear
1:50 PM 69.8 °F 55.4 °F 60% 30.09 in 6.2 mi SW 6.9 mph - N/A   Partly Cloudy
2:20 PM 69.8 °F 55.4 °F 60% 30.09 in 6.2 mi WSW 8.1 mph - N/A   Partly Cloudy
2:50 PM 69.8 °F 57.2 °F 64% 30.06 in 6.2 mi SW 8.1 mph - N/A   Scattered Clouds
3:00 PM 70 °F 58 °F 56% 30.07 in 6 mi SW 8.1 mph - -   Scattered Clouds
3:20 PM 69.8 °F 62.6 °F 78% 30.04 in 5.0 mi SW 8.1 mph - N/A   Scattered Clouds
3:50 PM 69.8 °F 62.6 °F 78% 30.04 in 5.0 mi SW 6.9 mph - N/A   Scattered Clouds
4:20 PM 69.8 °F 60.8 °F 73% 30.04 in 5.0 mi SW 8.1 mph - N/A   Scattered Clouds
4:50 PM 68.0 °F 60.8 °F 78% 30.01 in 5.0 mi SW 8.1 mph - N/A   Scattered Clouds
5:20 PM 68.0 °F 62.6 °F 83% 30.01 in 4.3 mi WSW 9.2 mph - N/A   Scattered Clouds
5:50 PM 68.0 °F 60.8 °F 78% 30.01 in 5.0 mi WSW 8.1 mph - N/A   Mostly Cloudy
7:20 PM 66.2 °F 59.0 °F 78% 29.98 in 5.6 mi WSW 6.9 mph - N/A   Mostly Cloudy
7:50 PM 64.4 °F 59.0 °F 83% 29.98 in 5.0 mi West 4.6 mph - N/A   Mostly Cloudy
8:20 PM 64.4 °F 60.8 °F 88% 29.98 in 5.0 mi West 4.6 mph - N/A   Mostly Cloudy
8:50 PM 64.4 °F 59.0 °F 83% 29.98 in 5.0 mi West 4.6 mph - N/A   Mostly Cloudy
9:00 PM 64 °F 60 °F 82% 30.00 in 5 mi West 4.6 mph - -   Mist
9:20 PM 64.4 °F 60.8 °F 88% 29.98 in 5.6 mi West 4.6 mph - N/A   Mostly Cloudy
9:50 PM 62.6 °F 59.0 °F 88% 29.98 in 5.0 mi Calm Calm - N/A   Mostly Cloudy
10:20 PM 62.6 °F 59.0 °F 88% 29.98 in 5.0 mi Calm Calm - N/A   Mostly Cloudy